Home > Weather > Mahón > Past weeks

Flag for Spain Past Weather in Mahón, Menorca, Spain — Yesterday and Last 2 Weeks

Now
76 °F

Mild.


Feels Like: 78 °F
Forecast: 72 / 86 °F
Wind: 6 mph from East

Location: Menorca / Mahon

Current Time: Jul 29, 2016 at 2:19:46 AM

Latest Report: Jul 28, 2016 at 9:00 PM


Visibility: N/A

Pressure: 30.04 "Hg

Humidity: 68%

Dew Point: 65 °F

Location of MahónLocation

Past Weather in Mahón — Graph

°F

Mahón Temperature Yesterday

Maximum temperature yesterday: 87 °F (at 3:00 PM)
Minimum temperature yesterday: 71 °F (at 6:00 AM)
Average temperature yesterday: 79 °F

High & Low Weather Summary for the Past Weeks

 TemperatureHumidityPressure
High92 °F (Jul 26, 1:00 PM)96% (Jul 20, 5:00 AM)30.20 "Hg (Jul 20, 5:00 AM)
Low63 °F (Jul 17, 4:00 AM)23% (Jul 19, 2:00 PM)29.81 "Hg (Jul 22, 2:00 PM)
Average77 °F58%30.08 "Hg
* Reported Jul 13 9:00 PM — Jul 28 9:00 PM, Mahón, Weather by CustomWeather, © 2016

Note: Actual official high and low records may vary slightly from our data, if they occured in-between our weather recording intervals... More about our weather records

Advertising

Mahón Weather History for the Previous 24 Hours

Scroll right to see more
 ConditionsComfort  
Time TempWeatherWind HumidityBarometerVisibility
9:00 PM
Thu, Jul 28
76 °FMild.6 mph68%30.04 "HgN/A
8:00 PM79 °FSunny.9 mph60%30.04 "Hg12 mi
7:00 PM81 °FWarm.10 mph55%30.04 "HgN/A
6:00 PM84 °FWarm.12 mph49%30.05 "HgN/A
3:00 PM87 °FPassing clouds.10 mph41%30.08 "Hg16 mi
2:00 PM87 °FPassing clouds.12 mph42%30.08 "Hg16 mi
1:00 PM85 °FWarm.12 mph42%30.10 "HgN/A
12:00 PM85 °FWarm.10 mph43%30.10 "HgN/A
11:00 AM83 °FPassing clouds.14 mph45%30.09 "Hg16 mi
10:00 AM83 °FWarm.15 mph48%30.09 "HgN/A
9:00 AM81 °FSunny.16 mph49%30.08 "Hg16 mi
8:00 AM78 °FSunny.8 mph62%30.08 "Hg16 mi
7:00 AM71 °FMild.7 mph79%30.08 "HgN/A
6:00 AM71 °FMild.9 mph79%30.07 "HgN/A
5:00 AM71 °FClear.8 mph76%30.06 "Hg12 mi
4:00 AM72 °FMild.6 mph73%30.06 "HgN/A
3:00 AM74 °FMild.5 mph70%30.07 "HgN/A
2:00 AM74 °FPassing clouds.7 mph69%30.07 "Hg12 mi
Weather by CustomWeather, © 2016

See weather overviewHow to use our weather pages